Location: Ashford, WA 98304, USA
(46.7569°N, 122.0085°W)
Time: 01:48:03
(UTC-07:00)

ISS - Visible Passes

Search period start: 22 April 2024 00:00
Search period end: 02 May 2024 00:00
Orbit: 412 x 418 km, 51.6° (Epoch: 22 April)

Date Brightness Start Highest point End Pass type
(mag) Time Alt. Az. Time Alt. Az. Time Alt. Az.
22 Apr -1.0 04:16:03 10° SE 04:16:42 10° SE 04:17:22 10° ESE visible
23 Apr -2.8 05:01:20 14° SSW 05:03:53 38° SE 05:07:01 10° ENE visible
24 Apr -2.2 04:14:10 22° SSE 04:14:57 24° SE 04:17:43 10° E visible
25 Apr -1.3 03:26:53 14° ESE 03:26:53 14° ESE 03:28:03 10° E visible
25 Apr -3.8 04:59:44 16° WSW 05:02:18 86° SSE 05:05:38 10° ENE visible
26 Apr -3.5 04:12:20 42° SSW 04:13:08 55° SSE 04:16:24 10° ENE visible
27 Apr -2.3 03:24:50 29° ESE 03:24:50 29° ESE 03:27:02 10° ENE visible
27 Apr -3.2 04:57:40 12° W 05:00:35 52° NNW 05:03:51 10° ENE visible
28 Apr -0.8 02:37:15 11° E 02:37:15 11° E 02:37:26 10° E visible
28 Apr -3.7 04:10:05 37° W 04:11:13 72° NNW 04:14:33 10° ENE visible
29 Apr -3.3 03:22:24 58° E 03:22:24 58° E 03:25:11 10° ENE visible
29 Apr -2.5 04:55:36 10° W 04:58:44 37° N 05:01:52 10° ENE visible
30 Apr -1.3 02:34:38 18° ENE 02:34:38 18° ENE 02:35:42 10° ENE visible
30 Apr -2.9 04:07:26 22° WNW 04:09:11 44° NNW 04:12:25 10° ENE visible
01 May -3.4 03:19:35 57° NNW 03:19:37 57° NNW 03:22:55 10° ENE visible
01 May -2.2 04:53:37 10° WNW 04:56:42 33° N 04:59:46 10° ENE visible
